Weather History for Park Rapids, MN

Change the Weather History Date:

Saturday, February 16, 2013

  Actual Average Record
Temperature  
Mean Temperature 12 °F -  
Max Temperature 18 °F 23 °F 50 °F (1981)
Min Temperature 5 °F 0 °F -32 °F (1967)
Degree Days  
Heating Degree Days 54    
Moisture  
Dew Point 4 °F    
Average Humidity 79    
Maximum Humidity 91    
Minimum Humidity 60    
Precipitation  
Precipitation 0.00 in - - ()
Sea Level Pressure  
Sea Level Pressure 30.14 in    
Wind  
Wind Speed 5 mph (South)    
Max Wind Speed 13 mph    
Max Gust Speed -    
Visibility 7 miles    
Events Snow    
Averages and records for this station are not official NWS values.
T = Trace of Precipitation, MM = Missing Value Source: NWS Daily Summary

Daily Weather History Graph

Daily Weather History Graph

Search for Another Location

Airport:

Trip Planner

Search our weather history database for the weather conditions in past years. The results will help you decide how hot, cold, wet, or windy it might be!

Date:

Astronomy

Feb. 16, 2013 Rise Set
Actual Time 7:22 AM CST 5:46 PM CST
Civil Twilight 6:51 AM CST 6:18 PM CST
Nautical Twilight 6:15 AM CST 6:53 PM CST
Astronomical Twilight 5:40 AM CST 7:28 PM CST
Moon 10:08 AM CST (2/16) 12:14 AM CST (2/16)
Length of Visible Light 11h 26m
Length of Day
10h 24m
Waxing Crescent, 39% of the Moon is Illuminated
Feb 16
Waxing Crescent
Feb 17
First Quarter
Feb 25
Full
Mar 4
Last Quarter
Mar 11
New

Hourly Weather History & Observations

Time (CST) Temp. Windchill Dew Point Humidity Pressure Visibility Wind Dir Wind Speed Gust Speed Precip Events Conditions
12:49 AM 6.8 °F -2.0 °F 3.2 °F 85% 30.16 in 4.0 mi WSW 4.6 mph - 0.00 in Snow Light Snow
12:53 AM 5.0 °F -4.1 °F 1.9 °F 87% 30.27 in 4.0 mi West 4.6 mph - 0.00 in Snow Light Snow
1:27 AM 6.8 °F -2.0 °F 3.2 °F 85% 30.15 in 3.0 mi WNW 4.6 mph - 0.00 in Snow Light Snow
1:53 AM 6.1 °F -4.3 °F 3.0 °F 87% 30.25 in 5.0 mi WNW 5.8 mph - 0.00 in Snow Light Snow
2:53 AM 6.1 °F -0.9 °F 3.0 °F 87% 30.23 in 10.0 mi West 3.5 mph - 0.00 in   Overcast
3:53 AM 6.1 °F - 3.9 °F 91% 30.22 in 10.0 mi Calm Calm - N/A   Overcast
4:53 AM 6.1 °F - 3.0 °F 87% 30.21 in 8.0 mi Calm Calm - N/A   Overcast
5:53 AM 6.1 °F -2.8 °F 3.0 °F 87% 30.21 in 6.0 mi SSW 4.6 mph - 0.00 in   Overcast
6:39 AM 6.8 °F -0.1 °F 3.2 °F 85% 30.10 in 2.0 mi SSW 3.5 mph - 0.00 in   Overcast
6:53 AM 6.1 °F -0.9 °F 3.0 °F 87% 30.21 in 2.5 mi SW 3.5 mph - 0.00 in   Overcast
7:11 AM 6.8 °F -3.5 °F 3.2 °F 85% 30.10 in 4.0 mi SW 5.8 mph - 0.00 in   Overcast
7:38 AM 6.8 °F -2.0 °F 3.2 °F 85% 30.10 in 7.0 mi WSW 4.6 mph - 0.00 in   Overcast
7:53 AM 6.1 °F -2.8 °F 3.0 °F 87% 30.21 in 2.5 mi South 4.6 mph - 0.00 in Snow Light Snow
8:05 AM 6.8 °F -0.1 °F 3.2 °F 85% 30.09 in 3.0 mi South 3.5 mph - 0.00 in Snow Light Snow
8:12 AM 6.8 °F -0.1 °F 1.4 °F 79% 30.09 in 2.5 mi South 3.5 mph - 0.00 in Snow Light Snow
8:27 AM 6.8 °F -3.5 °F 3.2 °F 85% 30.09 in 3.0 mi South 5.8 mph - 0.00 in Snow Light Snow
8:48 AM 6.8 °F -4.8 °F 3.2 °F 85% 30.09 in 2.5 mi South 6.9 mph - 0.00 in Snow Light Snow
8:53 AM 6.1 °F -0.9 °F 3.0 °F 87% 30.20 in 3.0 mi South 3.5 mph - 0.00 in   Overcast
9:37 AM 6.8 °F -2.0 °F 3.2 °F 85% 30.09 in 2.5 mi South 4.6 mph - 0.00 in Snow Light Snow
9:44 AM 6.8 °F - 3.2 °F 85% 30.09 in 5.0 mi Calm Calm - 0.00 in   Overcast
9:53 AM 7.0 °F -3.3 °F 3.9 °F 87% 30.20 in 3.0 mi SE 5.8 mph - 0.00 in Snow Light Snow
10:53 AM 8.1 °F -2.0 °F 3.9 °F 83% 30.19 in 8.0 mi SE 5.8 mph - 0.00 in   Mostly Cloudy
11:05 AM 8.6 °F -1.3 °F 3.2 °F 79% 30.08 in 10.0 mi SSE 5.8 mph - N/A   Scattered Clouds
11:53 AM 10.0 °F 1.8 °F 5.0 °F 80% 30.18 in 10.0 mi SE 4.6 mph - N/A   Clear
12:53 PM 12.9 °F 3.8 °F 6.1 °F 74% 30.16 in 10.0 mi SE 5.8 mph - N/A   Clear
1:53 PM 15.1 °F 5.2 °F 6.1 °F 68% 30.15 in 10.0 mi SE 6.9 mph - N/A   Clear
2:53 PM 17.1 °F 8.7 °F 7.0 °F 65% 30.14 in 10.0 mi SE 5.8 mph - N/A   Clear
3:53 PM 18.0 °F 8.7 °F 6.1 °F 60% 30.13 in 10.0 mi SE 6.9 mph - N/A   Clear
4:53 PM 17.1 °F 8.7 °F 6.1 °F 62% 30.12 in 10.0 mi SE 5.8 mph - N/A   Clear
5:53 PM 16.0 °F 7.4 °F 6.1 °F 65% 30.14 in 10.0 mi SE 5.8 mph - N/A   Overcast
6:13 PM 15.8 °F 6.1 °F 6.8 °F 68% 30.03 in 10.0 mi SSE 6.9 mph - N/A   Overcast
6:53 PM 16.0 °F 5.3 °F 6.1 °F 65% 30.14 in 10.0 mi South 8.1 mph - N/A   Overcast
7:53 PM 15.1 °F 3.3 °F 7.0 °F 70% 30.12 in 10.0 mi South 9.2 mph - N/A   Overcast
8:53 PM 14.0 °F 2.0 °F 6.1 °F 71% 30.12 in 10.0 mi SSE 9.2 mph - N/A   Overcast
9:42 PM 12.2 °F 0.7 °F 6.8 °F 79% 30.01 in 10.0 mi South 8.1 mph - N/A   Overcast
9:53 PM 12.9 °F 1.6 °F 6.1 °F 74% 30.11 in 10.0 mi SSE 8.1 mph - N/A   Overcast
10:53 PM 12.0 °F -1.3 °F 5.0 °F 73% 30.09 in 10.0 mi SSE 10.4 mph - N/A   Overcast
11:09 PM 12.2 °F -2.5 °F 5.0 °F 73% 29.98 in 10.0 mi SSE 12.7 mph - N/A   Overcast
11:53 PM 12.0 °F 1.5 °F 5.0 °F 73% 30.07 in 10.0 mi SSE 6.9 mph - N/A   Overcast